Location: Newark
(58.9986°N, 38.5006°E)
Time: 19:36:01
(UTC+00:00)

Tiros 1 despin weight - All Passes

Search period start: 19 April 2021 00:00
Search period end: 29 April 2021 00:00
Orbit: 593 x 641 km, 48.2° (Epoch: 18 April)

Date Brightness Start Highest point End Pass type
(mag) Time Alt. Az. Time Alt. Az. Time Alt. Az.
19 Apr - 03:39:04 10° S 03:41:11 13° SSE 03:43:18 10° SE daylight
19 Apr - 05:18:16 10° SW 05:21:37 20° S 05:24:55 10° SE daylight
19 Apr - 06:59:05 10° WSW 07:02:07 18° SSW 07:05:07 10° SSE daylight
20 Apr - 03:54:09 10° SSW 03:57:03 17° SSE 03:59:56 10° ESE daylight
20 Apr - 05:34:10 10° SW 05:37:33 21° S 05:40:54 10° SE daylight
20 Apr - 07:15:31 10° SW 07:18:00 15° SSW 07:20:28 10° SSE daylight
21 Apr - 02:31:25 10° SSE 02:32:38 11° SSE 02:33:51 10° SE daylight
21 Apr - 04:09:42 10° SW 04:12:58 20° S 04:16:12 10° SE daylight
21 Apr - 05:50:15 10° SW 05:53:30 20° S 05:56:42 10° SE daylight
21 Apr - 07:32:40 10° SW 07:33:49 11° SSW 07:34:57 10° SSW daylight
22 Apr - 02:45:54 10° SSW 02:48:27 15° SSE 02:51:00 10° ESE daylight
22 Apr - 04:25:30 10° SW 04:28:55 21° S 04:32:17 10° SE daylight
22 Apr - 06:06:31 10° WSW 06:09:25 17° SSW 06:12:16 10° SSE daylight
23 Apr - 03:01:13 10° SSW 03:04:20 18° SSE 03:07:26 10° ESE daylight
23 Apr - 04:41:29 10° SW 04:44:52 21° S 04:48:12 10° SE daylight
23 Apr - 06:23:07 10° SW 06:25:16 13° SSW 06:27:24 10° S daylight
24 Apr - 01:37:52 10° S 01:39:53 13° SSE 01:41:52 10° SE daylight
24 Apr - 03:16:53 10° SW 03:20:16 20° S 03:23:37 10° SE daylight
24 Apr - 04:57:37 10° WSW 05:00:48 19° SSW 05:03:56 10° SSE daylight
25 Apr - 01:52:51 10° SSW 01:55:43 16° SSE 01:58:34 10° ESE daylight
25 Apr - 03:32:46 10° SW 03:36:13 21° S 03:39:38 10° SE daylight
25 Apr - 05:13:59 10° WSW 05:16:41 16° SSW 05:19:21 10° SSE daylight
26 Apr - 00:30:28 10° SSE 00:31:18 10° SSE 00:32:09 10° SE visible
26 Apr - 02:08:20 10° SW 02:11:37 19° SSE 02:14:53 10° ESE daylight
26 Apr - 03:48:48 10° SW 03:52:09 20° S 03:55:29 10° SE daylight
26 Apr - 05:30:51 10° SW 05:32:31 12° SSW 05:34:10 10° S daylight
27 Apr - 00:44:38 10° S 00:47:07 14° SSE 00:49:35 10° ESE visible
27 Apr - 02:24:06 10° SW 02:27:34 21° S 02:30:59 10° SE daylight
27 Apr - 04:05:01 10° WSW 04:08:04 18° SSW 04:11:06 10° SSE daylight
28 Apr - 00:59:52 10° SSW 01:02:59 18° SSE 01:06:04 10° ESE daylight
28 Apr - 02:40:02 10° SW 02:43:30 21° S 02:46:56 10° SE daylight
28 Apr - 04:21:31 10° SW 04:23:56 14° SSW 04:26:20 10° S daylight
28 Apr - 23:36:41 10° S 23:38:31 12° SSE 23:40:21 10° SE visible
